Weather History for Salida, CO

Change the Weather History Date:

Sunday, September 29, 2013

  Actual Average (KGUC) Record (KGUC)
Temperature  
Mean Temperature 54 °F -  
Max Temperature 69 °F 63 °F 80 °F (2010)
Min Temperature 39 °F 29 °F 15 °F (1999)
Degree Days  
Heating Degree Days 11    
Growing Degree Days 4 (Base 50)    
Moisture  
Dew Point 20 °F    
Average Humidity 29    
Maximum Humidity 56    
Minimum Humidity 11    
Precipitation  
Precipitation 0.00 in - - ()
Sea Level Pressure  
Sea Level Pressure 30.29 in    
Wind  
Wind Speed 11 mph (West)    
Max Wind Speed 30 mph    
Max Gust Speed 43 mph    
Visibility 10 miles    
Events      
Averages and records for this station are not official NWS values.
T = Trace of Precipitation, MM = Missing Value Source: NWS Daily Summary

Daily Weather History Graph

Daily Weather History Graph

Search for Another Location

Airport:

Trip Planner

Search our weather history database for the weather conditions in past years. The results will help you decide how hot, cold, wet, or windy it might be!

Date:

Astronomy

Sep. 29, 2013 Rise Set
Actual Time 6:58 AM MDT 6:49 PM MDT
Civil Twilight 6:32 AM MDT 7:16 PM MDT
Nautical Twilight 6:01 AM MDT 7:46 PM MDT
Astronomical Twilight 5:30 AM MDT 8:17 PM MDT
Moon 1:45 AM MDT (9/29) 3:44 PM MDT (9/29)
Length of Visible Light 12h 44m
Length of Day
11h 51m
Waning Crescent, 26% of the Moon is Illuminated
Sep 29
Waning Crescent
Oct 4
New
Oct 11
First Quarter
Oct 18
Full
Oct 26
Last Quarter

Hourly Weather History & Observations

Time (MDT) Temp. Windchill Dew Point Humidity Pressure Visibility Wind Dir Wind Speed Gust Speed Precip Events Conditions
12:15 AM 51.4 °F - 23.9 °F 34% 30.37 in 10.0 mi WSW 8.1 mph - N/A   Clear
12:35 AM 48.2 °F - 24.1 °F 39% 30.37 in 10.0 mi WSW 3.5 mph - N/A   Clear
12:55 AM 47.7 °F - 24.8 °F 41% 30.37 in 10.0 mi WSW 3.5 mph - N/A   Clear
1:15 AM 49.8 °F - 26.8 °F 41% 30.37 in 10.0 mi West 4.6 mph - N/A   Clear
1:35 AM 47.1 °F - 25.3 °F 43% 30.37 in 10.0 mi West 4.6 mph - N/A   Clear
1:55 AM 50.4 °F - 26.6 °F 40% 30.36 in 10.0 mi SW 12.7 mph 17.3 mph N/A   Clear
2:15 AM 45.5 °F 42.5 °F 25.2 °F 45% 30.36 in 10.0 mi WNW 5.8 mph - N/A   Clear
2:35 AM 44.8 °F 40.4 °F 25.9 °F 48% 30.35 in 10.0 mi WNW 8.1 mph - N/A   Clear
2:55 AM 43.9 °F 37.5 °F 25.5 °F 48% 30.35 in 10.0 mi NNW 12.7 mph 18.4 mph N/A   Clear
3:15 AM 44.6 °F 40.2 °F 24.8 °F 46% 30.35 in 10.0 mi NNW 8.1 mph - N/A   Clear
3:35 AM 46.2 °F 42.2 °F 24.8 °F 43% 30.34 in 10.0 mi North 8.1 mph - N/A   Clear
3:55 AM 42.6 °F 37.8 °F 25.5 °F 51% 30.34 in 10.0 mi NNW 8.1 mph - N/A   Clear
4:15 AM 42.1 °F 39.2 °F 25.5 °F 52% 30.34 in 10.0 mi NNW 4.6 mph - N/A   Clear
4:35 AM 42.1 °F 37.7 °F 25.7 °F 52% 30.34 in 10.0 mi NNW 6.9 mph - N/A   Clear
4:55 AM 41.9 °F 36.3 °F 25.3 °F 52% 30.35 in 10.0 mi NNW 9.2 mph 16.1 mph N/A   Clear
5:15 AM 42.1 °F 36.6 °F 25.3 °F 52% 30.35 in 10.0 mi NNW 9.2 mph - N/A   Clear
5:35 AM 43.7 °F 39.7 °F 25.0 °F 48% 30.34 in 10.0 mi NNW 6.9 mph - N/A   Clear
5:55 AM 40.1 °F 35.3 °F 25.5 °F 56% 30.34 in 10.0 mi North 6.9 mph - N/A   Clear
6:15 AM 40.1 °F 35.3 °F 25.2 °F 55% 30.34 in 10.0 mi NNW 6.9 mph - N/A   Clear
6:35 AM 40.6 °F 34.8 °F 24.8 °F 53% 30.34 in 10.0 mi NNW 9.2 mph - N/A   Clear
6:55 AM 40.1 °F 33.6 °F 24.8 °F 54% 30.35 in 10.0 mi NNW 10.4 mph - N/A   Clear
7:15 AM 39.9 °F 33.9 °F 24.8 °F 55% 30.35 in 10.0 mi North 9.2 mph - N/A   Clear
7:35 AM 40.3 °F 33.4 °F 24.6 °F 54% 30.35 in 10.0 mi NNW 11.5 mph - N/A   Clear
7:55 AM 41.0 °F 34.7 °F 24.6 °F 52% 30.35 in 10.0 mi NNW 10.4 mph - N/A   Clear
8:15 AM 43.3 °F 38.1 °F 24.6 °F 48% 30.34 in 10.0 mi NNW 9.2 mph - N/A   Clear
8:35 AM 44.8 °F 41.6 °F 25.5 °F 47% 30.35 in 10.0 mi North 5.8 mph - N/A   Clear
8:55 AM 46.6 °F - 25.2 °F 43% 30.35 in 10.0 mi North 5.8 mph - N/A   Clear
9:15 AM 49.6 °F - 25.0 °F 38% 30.34 in 10.0 mi NNW 4.6 mph - N/A   Clear
9:35 AM 54.3 °F - 21.7 °F 28% 30.33 in 10.0 mi NNW 6.9 mph - N/A   Clear
9:55 AM 56.5 °F - 20.1 °F 24% 30.33 in 10.0 mi SW 9.2 mph - N/A   Clear
10:15 AM 60.8 °F - 15.6 °F 17% 30.32 in 10.0 mi WSW 13.8 mph 31.1 mph N/A   Clear
10:35 AM 61.7 °F - 17.2 °F 18% 30.31 in 10.0 mi SSW 17.3 mph 27.6 mph N/A   Clear
10:55 AM 62.8 °F - 17.6 °F 17% 30.31 in 10.0 mi SSW 15.0 mph 23.0 mph N/A   Clear
11:15 AM 63.0 °F - 17.8 °F 17% 30.31 in 10.0 mi SW 19.6 mph 28.8 mph N/A   Clear
11:35 AM 65.5 °F - 13.8 °F 14% 30.30 in 10.0 mi WSW 23.0 mph 29.9 mph N/A   Clear
11:55 AM 66.2 °F - 14.0 °F 13% 30.30 in 10.0 mi WSW 21.9 mph 36.8 mph N/A   Clear
12:15 PM 66.4 °F - 16.0 °F 14% 30.29 in 10.0 mi WSW 24.2 mph 32.2 mph N/A   Clear
12:35 PM 66.6 °F - 15.4 °F 14% 30.29 in 10.0 mi WSW 20.7 mph 35.7 mph N/A   Clear
12:55 PM 67.5 °F - 16.5 °F 14% 30.27 in 10.0 mi WSW 21.9 mph 33.4 mph N/A   Clear
1:15 PM 67.5 °F - 16.3 °F 14% 30.26 in 10.0 mi West 29.9 mph 38.0 mph N/A   Clear
1:35 PM 66.9 °F - 14.7 °F 13% 30.24 in 10.0 mi WSW 25.3 mph 41.4 mph N/A   Clear
1:55 PM 67.3 °F - 14.7 °F 13% 30.23 in 10.0 mi WSW 29.9 mph 42.6 mph N/A   Clear
2:15 PM 67.6 °F - 14.4 °F 13% 30.23 in 10.0 mi WSW 23.0 mph 33.4 mph N/A   Clear
2:35 PM 69.4 °F - 15.3 °F 13% 30.22 in 10.0 mi WSW 21.9 mph 36.8 mph N/A   Clear
2:55 PM 69.3 °F - 16.5 °F 13% 30.22 in 10.0 mi WSW 25.3 mph 31.1 mph N/A   Clear
3:15 PM 69.3 °F - 16.0 °F 13% 30.21 in 10.0 mi WSW 23.0 mph 34.5 mph N/A   Clear
3:35 PM 69.3 °F - 14.9 °F 12% 30.21 in 10.0 mi WSW 15.0 mph 24.2 mph N/A   Clear
3:55 PM 67.1 °F - 13.8 °F 13% 30.21 in 10.0 mi West 17.3 mph 27.6 mph N/A   Clear
4:15 PM 68.9 °F - 14.0 °F 12% 30.22 in 10.0 mi West 18.4 mph 32.2 mph N/A   Clear
4:35 PM 69.1 °F - 15.1 °F 13% 30.21 in 10.0 mi West 15.0 mph 24.2 mph N/A   Clear
4:55 PM 69.1 °F - 13.8 °F 12% 30.21 in 10.0 mi West 16.1 mph 21.9 mph N/A   Clear
5:15 PM 68.9 °F - 11.7 °F 11% 30.22 in 10.0 mi West 24.2 mph 31.1 mph N/A   Clear
5:35 PM 66.6 °F - 11.8 °F 12% 30.22 in 10.0 mi West 19.6 mph 29.9 mph N/A   Clear
5:55 PM 67.1 °F - 14.4 °F 13% 30.22 in 10.0 mi West 13.8 mph 18.4 mph N/A   Clear
6:15 PM 65.7 °F - 13.8 °F 13% 30.22 in 10.0 mi WSW 15.0 mph 19.6 mph N/A   Clear
6:35 PM 64.8 °F - 13.6 °F 14% 30.23 in 10.0 mi West 10.4 mph 21.9 mph N/A   Clear
6:55 PM 61.7 °F - 17.2 °F 18% 30.23 in 10.0 mi WSW 8.1 mph - N/A   Clear
7:15 PM 60.8 °F - 17.6 °F 19% 30.23 in 10.0 mi WSW 9.2 mph - N/A   Clear
7:35 PM 59.4 °F - 18.0 °F 20% 30.24 in 10.0 mi WSW 11.5 mph 18.4 mph N/A   Clear
7:55 PM 58.3 °F - 18.5 °F 21% 30.24 in 10.0 mi SW 12.7 mph - N/A   Clear
8:15 PM 57.6 °F - 19.6 °F 23% 30.24 in 10.0 mi SW 16.1 mph 21.9 mph N/A   Clear
8:35 PM 57.7 °F - 19.0 °F 22% 30.24 in 10.0 mi SW 16.1 mph - N/A   Clear
8:55 PM 57.9 °F - 18.1 °F 21% 30.24 in 10.0 mi SW 16.1 mph 21.9 mph N/A   Clear
9:15 PM 58.3 °F - 17.4 °F 20% 30.24 in 10.0 mi SW 19.6 mph 25.3 mph N/A   Clear
9:35 PM 58.3 °F - 17.4 °F 20% 30.24 in 10.0 mi SW 19.6 mph 26.5 mph N/A   Clear
9:55 PM 58.1 °F - 18.1 °F 21% 30.24 in 10.0 mi SW 19.6 mph 26.5 mph N/A   Clear
10:15 PM 57.7 °F - 18.5 °F 22% 30.25 in 10.0 mi SSW 17.3 mph 26.5 mph N/A   Clear
10:35 PM 56.5 °F - 19.9 °F 24% 30.26 in 10.0 mi SW 16.1 mph 21.9 mph N/A   Clear
10:55 PM 57.4 °F - 17.6 °F 21% 30.25 in 10.0 mi WSW 15.0 mph 23.0 mph N/A   Clear
11:15 PM 57.7 °F - 16.5 °F 20% 30.24 in 10.0 mi SW 20.7 mph 27.6 mph N/A   Clear
11:35 PM 58.6 °F - 15.6 °F 19% 30.24 in 10.0 mi WSW 16.1 mph 27.6 mph N/A   Clear
11:55 PM 57.6 °F - 17.6 °F 21% 30.25 in 10.0 mi WSW 15.0 mph 19.6 mph N/A   Clear